EW9717 Weather Reports


time (UTC)temp
C
wind
direction
speed
KPH
gust
KPH
rain 1hr
cm
rain 24hr
cm
rain mn
cm
humidity
%
barometer
mb
20260906213047 35 137 16.1 30.6 0.00 0.99 0.00 31 1009.0
20260906212546 35 203 14.5 25.7 0.00 0.99 0.00 31 1009.1
20260906211816 35 155 12.9 27.4 0.00 0.99 0.00 31 1009.2
20260906211316 34 145 11.3 27.4 0.00 0.99 0.00 32 1009.3
20260906210816 35 108 11.3 25.7 0.00 0.99 0.00 31 1009.3
20260906210316 35 145 14.5 30.6 0.00 0.99 0.00 32 1009.6
20260906205814 35 205 14.5 30.6 0.00 0.99 0.00 32 1009.7
20260906205312 35 109 11.3 22.5 0.00 0.99 0.00 32 1009.7
20260906204809 35 172 12.9 29.0 0.00 0.99 0.00 32 1009.7
20260906204541 35 98 14.5 29.0 0.00 0.99 0.00 32 1009.7
20260906203811 35 162 12.9 29.0 0.00 0.99 0.00 33 1009.8
20260906203309 35 131 11.3 29.0 0.00 0.99 0.00 33 1009.8
20260906202808 35 95 12.9 24.1 0.00 0.99 0.00 32 1009.8
20260906202307 35 142 14.5 25.7 0.00 0.99 0.00 32 1009.9
20260906201806 35 172 14.5 25.7 0.00 0.99 0.00 32 1009.8
20260906201305 35 129 12.9 25.7 0.00 0.99 0.00 32 1009.9
20260906200803 35 177 14.5 25.7 0.00 0.99 0.00 33 1010.0
20260906200302 35 174 12.9 25.7 0.00 0.99 0.00 32 1010.0
20260906195803 34 130 12.9 24.1 0.00 0.99 0.00 34 1009.9
20260906195300 33 0 14.5 29.0 0.00 0.99 0.00 34 1010.0
20260906194759 34 118 14.5 29.0 0.00 0.99 0.00 33 1010.1
20260906194530 34 129 14.5 32.2 0.00 0.99 0.00 33 1010.2
20260906193801 35 129 12.9 32.2 0.00 0.99 0.00 34 1010.3
20260906193531 35 169 11.3 20.9 0.00 0.99 0.00 33 1010.5
20260906192759 34 167 11.3 22.5 0.00 0.99 0.00 34 1010.5
20260906192300 34 134 11.3 24.1 0.00 0.99 0.00 34 1010.5
20260906191800 34 189 12.9 30.6 0.00 0.99 0.00 35 1010.5
20260906191257 34 114 12.9 30.6 0.00 0.99 0.00 35 1010.6
20260906190753 34 204 12.9 24.1 0.00 0.99 0.00 35 1010.6
20260906190522 34 169 12.9 24.1 0.00 0.99 0.00 35 1010.8
20260906190023 34 184 11.3 24.1 0.00 0.99 0.00 36 1010.8
20260906185247 34 131 12.9 24.1 0.00 0.99 0.00 36 1011.0
20260906184745 34 150 12.9 24.1 0.00 0.99 0.00 36 1010.9
20260906184516 34 179 11.3 20.9 0.00 0.99 0.00 36 1011.0
20260906184015 33 144 12.9 24.1 0.00 0.99 0.00 37 1011.1
20260906183237 33 165 12.9 24.1 0.00 0.99 0.00 37 1011.3
20260906182735 33 170 12.9 20.9 0.00 0.99 0.00 38 1011.2
20260906182235 33 165 14.5 29.0 0.00 0.99 0.00 38 1011.4
20260906181731 33 145 14.5 29.0 0.00 0.99 0.00 38 1011.4
20260906181232 33 165 12.9 27.4 0.00 0.99 0.00 37 1011.5
20260906181002 33 159 14.5 30.6 0.00 0.99 0.00 38 1011.5
20260906180232 33 138 12.9 30.6 0.00 0.99 0.00 38 1011.5
20260906175731 33 172 12.9 27.4 0.00 0.99 0.00 40 1011.7
20260906175503 33 160 16.1 27.4 0.00 0.99 0.00 39 1011.9
20260906174732 33 156 14.5 29.0 0.00 0.99 0.00 39 1011.9
20260906174229 33 176 12.9 29.0 0.00 0.99 0.00 38 1011.9
20260906173727 33 183 12.9 22.5 0.00 0.99 0.00 39 1011.9
20260906173227 33 146 12.9 25.7 0.00 0.99 0.00 39 1011.9
20260906172714 33 110 12.9 25.7 0.00 0.99 0.00 40 1012.1
20260906172213 33 165 12.9 24.1 0.00 0.99 0.00 42 1011.9
20260906171709 32 158 12.9 29.0 0.00 0.99 0.00 42 1012.1
20260906171207 32 167 12.9 29.0 0.00 0.99 0.00 42 1012.1
20260906170708 32 167 14.5 27.4 0.00 0.99 0.00 43 1012.1
20260906170208 32 187 14.5 27.4 0.00 0.99 0.00 43 1012.2
20260906165708 32 179 11.3 27.4 0.00 0.99 0.00 44 1012.2
20260906165211 31 162 12.9 30.6 0.00 0.99 0.00 45 1012.3
20260906165207 32 172 12.9 30.6 0.00 0.99 0.00 46 1012.2
20260906164203 31 168 12.9 22.5 0.00 0.99 0.00 46 1012.4
20260906163704 31 134 11.3 20.9 0.00 0.99 0.00 48 1012.4
20260906163201 31 172 9.7 17.7 0.00 0.99 0.00 50 1012.3
20260906162702 31 191 11.3 19.3 0.00 0.99 0.00 51 1012.2
20260906162200 31 188 11.3 19.3 0.00 0.99 0.00 52 1012.3
20260906161657 30 229 9.7 17.7 0.00 0.99 0.00 52 1012.4
20260906161157 30 188 9.7 16.1 0.00 0.99 0.00 53 1012.5
20260906160656 30 242 11.3 19.3 0.00 0.99 0.00 55 1012.4
20260906160154 29 199 11.3 19.3 0.00 0.99 0.00 56 1012.5
20260906155653 28 207 9.7 19.3 0.00 0.99 0.00 58 1012.4
20260906155153 28 105 9.7 17.7 0.00 0.99 0.00 58 1012.5
20260906154651 28 127 9.7 16.1 0.00 0.99 0.00 59 1012.6
20260906154415 28 190 9.7 16.1 0.00 0.99 0.00 59 1012.5
20260906153639 28 205 9.7 16.1 0.00 0.99 0.00 59 1012.4
20260906153136 28 232 11.3 19.3 0.00 0.99 0.00 58 1012.4
20260906152634 28 240 11.3 19.3 0.00 0.99 0.00 58 1012.4
20260906152403 28 236 11.3 19.3 0.00 0.99 0.00 59 1012.4
20260906151627 28 195 11.3 19.3 0.00 0.99 0.00 60 1012.4
20260906151127 28 196 11.3 20.9 0.00 0.99 0.00 60 1012.4
20260906150623 27 229 11.3 20.9 0.00 0.99 0.00 61 1012.3
20260906150122 27 193 9.7 17.7 0.00 0.99 0.00 62 1012.2
20260906145620 27 125 9.7 19.3 0.00 0.99 0.00 63 1012.4
20260906145118 26 117 9.7 19.3 0.00 0.99 0.00 63 1012.4
20260906144848 26 105 8.0 12.9 0.00 0.99 0.00 63 1012.4
20260906144111 26 96 8.0 12.9 0.00 0.99 0.00 63 1012.4
20260906143611 26 102 6.4 12.9 0.00 0.99 0.00 64 1012.4
20260906143108 25 191 8.0 17.7 0.00 0.99 0.00 64 1012.4
20260906142837 25 218 9.7 17.7 0.00 0.99 0.00 64 1012.4
20260906142104 25 192 8.0 16.1 0.00 0.99 0.00 65 1012.4
20260906141604 24 176 8.0 12.9 0.00 0.99 0.00 66 1012.4
20260906141600 25 179 8.0 14.5 0.00 0.99 0.00 65 1012.3
20260906140559 24 0 8.0 19.3 0.00 0.99 0.00 67 1012.3
20260906140100 23 0 9.7 19.3 0.00 0.99 0.00 67 1012.3
20260906135829 23 0 8.0 14.5 0.00 0.99 0.00 68 1012.3
20260906135057 23 0 8.0 14.5 0.00 0.99 0.00 68 1012.2
20260906134535 23 0 8.0 12.9 0.00 0.99 0.00 69 1012.2
20260906134033 22 0 6.4 11.3 0.00 0.99 0.00 69 1012.2
20260906133532 22 0 6.4 16.1 0.00 0.99 0.00 69 1012.2
20260906133032 22 0 8.0 16.1 0.00 0.99 0.00 70 1012.1
20260906132529 22 0 8.0 14.5 0.00 0.99 0.00 69 1011.9
20260906132030 22 0 8.0 16.1 0.00 0.99 0.00 69 1011.9
20260906131529 22 0 6.4 16.1 0.00 0.99 0.00 70 1011.9
20260906131029 22 0 6.4 11.3 0.00 0.99 0.00 70 1011.8
20260906130529 22 0 6.4 16.1 0.00 0.99 0.00 69 1011.6
20260906130031 22 0 8.0 16.1 0.00 0.99 0.00 69 1011.6
20260906125527 22 0 8.0 16.1 0.00 0.99 0.00 69 1011.6
20260906125300 22 0 8.0 12.9 0.00 0.99 0.00 69 1011.5
20260906124525 22 0 9.7 14.5 0.00 0.99 0.00 69 1011.5
20260906124024 22 0 9.7 17.7 0.00 0.99 0.00 68 1011.6
20260906123520 22 0 9.7 17.7 0.00 0.99 0.00 67 1011.5
20260906123250 22 0 8.0 12.9 0.00 0.99 0.00 67 1011.4
20260906122513 22 0 6.4 14.5 0.00 0.99 0.00 67 1011.4
20260906122011 22 0 9.7 17.7 0.00 0.99 0.00 66 1011.4
20260906121510 22 0 11.3 19.3 0.00 0.99 0.00 66 1011.4
20260906121010 22 0 9.7 19.3 0.00 0.99 0.00 65 1011.3
20260906120510 23 0 9.7 17.7 0.00 0.99 0.00 65 1011.3
20260906115957 23 0 9.7 17.7 0.00 0.99 0.00 65 1011.3
20260906115449 23 0 8.0 17.7 0.00 0.99 0.00 65 1011.1
20260906114949 23 0 6.4 12.9 0.00 0.99 0.00 65 1011.2
20260906114448 23 0 4.8 11.3 0.00 0.99 0.00 65 1011.1
20260906114216 23 0 6.4 11.3 0.00 0.99 0.00 65 1011.0
20260906113436 23 0 8.0 12.9 0.00 0.99 0.00 64 1011.1
20260906113202 23 0 6.4 12.9 0.00 0.99 0.00 64 1010.9
20260906112430 23 0 4.8 12.9 0.00 0.99 0.00 64 1010.9
20260906111929 23 0 8.0 16.1 0.00 0.99 0.00 64 1010.7
20260906111429 23 0 9.7 16.1 0.00 0.99 0.00 63 1010.7
20260906110929 23 0 8.0 16.1 0.00 0.99 0.00 63 1010.7
20260906110430 23 0 8.0 16.1 0.00 0.99 0.00 63 1010.8
20260906105928 24 0 6.4 14.5 0.00 0.99 0.00 62 1010.9
20260906105429 24 0 4.8 9.7 0.00 0.99 0.00 62 1010.8
20260906104930 24 0 4.8 11.3 0.00 0.99 0.00 62 1010.9
20260906104427 24 0 4.8 11.3 0.00 0.99 0.00 62 1010.9
20260906103927 24 0 4.8 11.3 0.00 0.99 0.00 62 1010.9
20260906103428 24 0 4.8 11.3 0.00 0.99 0.00 62 1010.9
20260906102927 24 0 4.8 9.7 0.00 0.99 0.00 62 1010.9
20260906102426 24 0 4.8 9.7 0.00 0.99 0.00 62 1010.7
20260906101922 24 0 3.2 6.4 0.00 0.99 0.00 62 1010.6
20260906101424 24 0 4.8 12.9 0.00 0.99 0.00 62 1010.7
20260906100919 24 0 6.4 12.9 0.00 0.99 0.00 61 1010.7
20260906100418 24 0 6.4 12.9 0.00 0.99 0.00 61 1010.6
20260906095914 24 0 4.8 12.9 0.00 0.99 0.00 61 1010.6
20260906095411 24 0 4.8 8.0 0.00 0.99 0.00 61 1010.6
20260906094910 24 0 4.8 11.3 0.00 0.99 0.00 61 1010.6
20260906094406 24 0 4.8 11.3 0.00 0.99 0.00 61 1010.7
20260906093905 24 0 4.8 11.3 0.00 0.99 0.00 62 1010.6
20260906093403 24 0 4.8 11.3 0.00 0.99 0.00 62 1010.6
20260906092901 24 0 6.4 11.3 0.00 0.99 0.00 62 1010.7
20260906092355 24 0 6.4 11.3 0.00 0.99 0.00 62 1010.6
20260906091855 24 0 6.4 11.3 0.00 0.99 0.00 63 1010.7
20260906091354 24 0 6.4 11.3 0.00 0.99 0.00 65 1010.7
20260906091121 24 0 4.8 8.0 0.00 0.99 0.00 64 1010.8
20260906090346 24 0 4.8 9.7 0.00 0.99 0.00 63 1010.7
20260906085843 24 0 4.8 9.7 0.00 0.99 0.00 64 1010.7
20260906085340 24 0 4.8 9.7 0.00 0.99 0.00 64 1010.6
20260906085334 24 0 4.8 8.0 0.00 0.99 0.00 64 1010.6
20260906084601 24 0 4.8 8.0 0.00 0.99 0.00 64 1010.5
20260906083832 24 0 3.2 8.0 0.00 0.99 0.00 64 1010.4
20260906083331 24 0 1.6 6.4 0.00 0.99 0.00 66 1010.5
20260906083100 24 0 3.2 6.4 0.00 0.99 0.00 65 1010.6
20260906082328 24 0 3.2 4.8 0.00 0.99 0.00 66 1010.6
20260906082057 24 0 3.2 4.8 0.00 0.99 0.00 66 1010.6
20260906081325 24 0 3.2 8.0 0.00 0.99 0.00 66 1010.6
20260906080825 24 0 4.8 8.0 0.00 0.99 0.00 66 1010.6
20260906080325 24 0 4.8 8.0 0.00 0.99 0.00 66 1010.6
20260906075825 24 0 4.8 9.7 0.00 0.99 0.00 66 1010.7
20260906075326 24 0 6.4 9.7 0.00 0.99 0.00 65 1010.9
20260906074823 24 0 6.4 9.7 0.00 0.99 0.00 64 1010.8
20260906074323 25 0 6.4 11.3 0.00 0.99 0.00 64 1010.8
20260906073821 25 0 6.4 11.3 0.00 0.99 0.00 64 1010.9
20260906073314 25 0 6.4 12.9 0.00 0.99 0.00 63 1010.9
20260906072809 25 0 8.0 12.9 0.00 0.99 0.00 63 1010.9
20260906072306 25 0 8.0 12.9 0.00 0.99 0.00 63 1010.9
20260906071756 25 0 9.7 17.7 0.00 0.99 0.00 63 1010.9
20260906071256 25 0 12.9 20.9 0.00 0.99 0.00 61 1010.8
20260906070756 25 0 12.9 22.5 0.00 0.99 0.00 61 1010.8
20260906070527 25 0 9.7 22.5 0.00 0.99 0.00 61 1010.7
20260906065753 25 0 6.4 19.3 0.00 0.99 0.00 61 1010.7
20260906065254 25 0 4.8 9.7 0.00 0.99 0.00 61 1010.5
20260906065022 25 0 6.4 12.9 0.00 0.99 0.00 62 1010.6
20260906064248 25 0 6.4 17.7 0.00 0.99 0.00 61 1010.7
20260906063746 25 0 4.8 17.7 0.00 0.99 0.00 62 1010.7
20260906063246 25 0 4.8 11.3 0.00 0.99 0.00 61 1010.7
20260906062746 25 0 6.4 14.5 0.00 0.99 0.00 61 1010.6
20260906062246 25 0 6.4 14.5 0.00 0.99 0.00 61 1010.6
20260906061740 26 0 6.4 12.9 0.00 0.99 0.00 61 1010.6
20260906061238 26 0 8.0 16.1 0.00 0.99 0.00 61 1010.6
20260906061001 26 0 9.7 20.9 0.00 0.99 0.00 60 1010.6
20260906060226 26 0 9.7 20.9 0.00 0.99 0.00 60 1010.5
20260906055727 26 0 9.7 17.7 0.00 0.99 0.00 61 1010.6
20260906055227 26 0 8.0 16.1 0.00 0.99 0.00 63 1010.5
20260906054730 25 0 8.0 16.1 0.00 0.99 0.00 63 1010.5
20260906054726 26 0 8.0 16.1 0.00 0.99 0.00 62 1010.6
20260906053726 26 0 6.4 16.1 0.00 0.99 0.00 64 1010.5
20260906053224 26 0 6.4 12.9 0.00 0.99 0.00 63 1010.5
20260906052722 26 0 8.0 19.3 0.00 0.99 0.00 63 1010.6
20260906052218 26 0 11.3 19.3 0.00 0.99 0.00 62 1010.5
20260906051717 26 0 11.3 19.3 0.00 0.99 0.00 62 1010.5
20260906051211 26 0 9.7 19.3 0.00 0.99 0.00 61 1010.5
20260906050709 26 0 9.7 19.3 0.00 0.99 0.00 62 1010.5
20260906050441 26 0 8.0 16.1 0.00 0.99 0.00 62 1010.6
20260906045939 26 0 8.0 12.9 0.00 0.99 0.99 62 1010.6
20260906045209 26 0 8.0 14.5 0.00 0.99 0.99 61 1010.6
20260906044709 26 0 6.4 14.5 0.00 0.99 0.99 62 1010.6
20260906044435 26 0 3.2 12.9 0.00 0.99 0.99 62 1010.7
20260906043936 26 0 6.4 16.1 0.00 0.99 0.99 62 1010.7
20260906043159 26 0 8.0 16.1 0.00 0.99 0.99 61 1010.7
20260906042654 26 0 6.4 14.5 0.00 0.99 0.99 61 1010.8
20260906042418 26 0 6.4 14.5 0.00 0.99 0.99 62 1010.8
20260906041649 26 0 6.4 12.9 0.00 0.99 0.99 62 1010.9
20260906041147 26 0 8.0 12.9 0.00 0.99 0.99 61 1010.9
20260906040645 26 0 9.7 14.5 0.00 0.99 0.99 62 1010.8
20260906040145 26 0 11.3 20.9 0.03 0.99 0.99 63 1010.9
20260906035644 26 0 16.1 27.4 0.05 0.99 0.99 63 1010.9
20260906035143 25 0 12.9 27.4 0.08 0.99 0.99 63 1010.9
20260906034640 25 0 11.3 22.5 0.13 0.99 0.99 66 1010.8
20260906034140 25 0 12.9 22.5 0.30 0.99 0.99 67 1010.9
20260906033638 24 0 8.0 20.9 0.53 0.99 0.99 68 1010.7
20260906033408 24 0 8.0 19.3 0.56 0.99 0.99 69 1010.8
20260906032634 24 0 11.3 25.7 0.58 0.99 0.99 69 1010.8
20260906032134 23 0 14.5 27.4 0.61 0.99 0.99 70 1010.9
20260906031902 23 0 16.1 41.8 0.74 0.99 0.99 70 1011.0
20260906031132 23 0 22.5 43.5 0.84 0.99 0.99 71 1011.0
20260906030903 23 0 22.5 43.5 0.89 0.99 0.99 71 1011.0
20260906030131 23 0 16.1 32.2 0.86 0.97 0.97 72 1010.9
20260906025628 23 0 17.7 33.8 0.86 0.94 0.94 72 1010.7
20260906025128 23 0 22.5 49.9 0.86 0.89 0.91 71 1010.5
20260906024628 23 0 25.7 49.9 0.86 0.86 0.86 70 1010.7
20260906024128 23 0 27.4 48.3 0.69 0.69 0.69 70 1010.5
20260906023628 23 0 25.7 48.3 0.46 0.46 0.46 67 1010.6
20260906023128 23 0 20.9 46.7 0.43 0.43 0.43 67 1010.4
20260906022628 23 0 25.7 51.5 0.41 0.41 0.41 65 1010.3
20260906022127 25 0 41.8 70.8 0.38 0.38 0.38 64 1010.3
20260906021628 25 0 43.5 74.0 0.25 0.25 0.30 62 1009.6
20260906021128 26 0 32.2 74.0 0.15 0.15 0.15 61 1009.0
20260906020859 26 0 29.0 49.9 0.10 0.10 0.10 60 1009.0
20260906020127 26 0 27.4 49.9 0.10 0.10 0.10 58 1009.3
20260906015854 27 0 25.7 38.6 0.08 0.08 0.10 55 1009.1
20260906015124 29 0 27.4 48.3 0.03 0.03 0.05 49 1008.9
20260906014625 30 0 27.4 49.9 0.00 0.00 0.00 39 1008.7
20260906014123 31 0 19.3 49.9 0.00 0.00 0.00 40 1008.4
20260906013621 31 105 12.9 30.6 0.00 0.00 0.00 39 1008.4
20260906013119 32 244 9.7 30.6 0.00 0.00 0.00 38 1008.4
20260906012619 32 222 4.8 12.9 0.00 0.00 0.00 35 1008.3
20260906012117 32 106 3.2 6.4 0.00 0.00 0.00 34 1008.2
20260906011845 33 105 4.8 9.7 0.00 0.00 0.00 34 1008.2
20260906011059 33 103 4.8 9.7 0.00 0.00 0.00 33 1008.1
20260906010553 33 105 4.8 11.3 0.00 0.00 0.00 33 1008.0
20260906010037 33 89 4.8 11.3 0.00 0.00 0.00 33 1007.9
20260906005533 33 51 4.8 11.3 0.00 0.00 0.00 33 1007.9
20260906005033 33 43 6.4 11.3 0.00 0.00 0.00 33 1007.9
20260906004533 33 4 4.8 11.3 0.00 0.00 0.00 33 1007.9
20260906004031 33 342 6.4 11.3 0.00 0.00 0.00 33 1007.7
20260906003530 33 336 6.4 11.3 0.00 0.00 0.00 33 1007.6
20260906003029 33 323 4.8 11.3 0.00 0.00 0.00 33 1007.7
20260906002518 33 162 6.4 11.3 0.00 0.00 0.00 33 1007.8
20260906001949 33 150 6.4 11.3 0.00 0.00 0.00 32 1007.8
20260906001714 33 202 6.4 14.5 0.00 0.00 0.00 32 1007.8
20260906000942 33 280 6.4 14.5 0.00 0.00 0.00 32 1007.7
20260906000711 34 213 8.0 20.9 0.00 0.00 0.00 31 1007.7
20260905235938 35 0 6.4 20.9 0.00 0.00 0.00 31 1007.6
20260905235436 35 66 4.8 16.1 0.00 0.00 0.00 29 1007.6
20260905234934 35 75 8.0 20.9 0.00 0.00 0.00 29 1007.3
20260905234705 35 72 11.3 20.9 0.00 0.00 0.00 29 1007.2
20260905233933 35 109 9.7 17.7 0.00 0.00 0.00 29 1007.0
20260905233434 35 98 9.7 17.7 0.00 0.00 0.00 28 1007.0
20260905233204 36 84 11.3 22.5 0.00 0.00 0.00 28 1006.9
20260905232431 36 92 11.3 22.5 0.00 0.00 0.00 28 1006.9
20260905231928 36 122 9.7 17.7 0.00 0.00 0.00 27 1006.8
20260905231658 36 147 8.0 22.5 0.00 0.00 0.00 27 1006.8
20260905230928 36 110 8.0 22.5 0.00 0.00 0.00 27 1006.8
20260905230428 36 153 8.0 19.3 0.00 0.00 0.00 27 1006.9
20260905225928 37 107 8.0 16.1 0.00 0.00 0.00 26 1006.9
20260905225428 37 184 11.3 22.5 0.00 0.00 0.00 25 1006.8
20260905224929 37 198 14.5 32.2 0.00 0.00 0.00 25 1006.8
20260905224658 37 183 12.9 32.2 0.00 0.00 0.00 25 1006.8
20260905223923 37 142 9.7 25.7 0.00 0.00 0.00 25 1006.7
20260905223422 37 154 8.0 16.1 0.00 0.00 0.00 25 1006.7
20260905222922 37 164 9.7 16.1 0.00 0.00 0.00 25 1006.8
20260905222423 37 181 9.7 19.3 0.00 0.00 0.00 25 1006.8
20260905222153 37 188 9.7 19.3 0.00 0.00 0.00 25 1006.8
20260905221421 37 181 8.0 14.5 0.00 0.00 0.00 27 1006.8
20260905220919 36 0 9.7 16.1 0.00 0.00 0.00 28 1006.9
20260905220408 36 167 12.9 22.5 0.00 0.00 0.00 28 1006.9
20260905215904 37 162 16.1 22.5 0.00 0.00 0.00 27 1006.9
20260905215402 37 180 16.1 32.2 0.00 0.00 0.00 26 1007.0
20260905214900 37 176 12.9 32.2 0.00 0.00 0.00 27 1007.0
20260905214357 37 143 11.3 32.2 0.00 0.00 0.00 26 1007.1
20260905213859 37 168 11.3 32.2 0.00 0.00 0.00 25 1007.1
20260905213358 37 167 11.3 22.5 0.00 0.00 0.00 26 1007.1